Index of /drivers/303MINI/
../
a2000.zip 06-May-2026 08:16 70561
abb_et.zip 06-May-2026 08:16 92912
abb_m1m.zip 06-May-2026 08:16 69618
ac_su.zip 06-May-2026 08:16 3003
ac_v2.zip 06-May-2026 08:16 72523
access4000x.zip 06-May-2026 08:16 74658
acintrudedc.zip 06-May-2026 08:16 1380
acm03u1.zip 06-May-2026 08:16 86507
acpowersaver_temperature.zip 06-May-2026 08:16 59749
acrel_aem.zip 06-May-2026 08:16 70152
acrel_pz.zip 06-May-2026 08:16 91463
acrelacr.zip 06-May-2026 08:16 69158
acrelamc.zip 06-May-2026 08:16 67908
acreldtsd1352.zip 06-May-2026 08:16 79830
acrelpz72l.zip 06-May-2026 08:16 67317
aeg_ms10m.zip 06-May-2026 08:16 71860
aeg_ms10se.zip 06-May-2026 08:16 72085
agc150.zip 06-May-2026 08:16 75884
ai_general_temp_humid.zip 06-May-2026 08:16 71236
ai_water2.zip 06-May-2026 08:16 68461
aigeneralshaper.zip 06-May-2026 08:16 84766
airsys.zip 06-May-2026 08:16 83422
akshuayibump.zip 06-May-2026 08:16 83246
akshuayibump2.zip 06-May-2026 08:16 81816
akshuayiliejianac.zip 06-May-2026 08:16 90194
am5set.zip 06-May-2026 08:16 74537
amc100.zip 06-May-2026 08:16 111980
amc16z_1dc.zip 06-May-2026 08:16 68385
amc16z_2ac.zip 06-May-2026 08:16 77133
amc16z_2dc.zip 06-May-2026 08:16 87526
amc72_96.zip 06-May-2026 08:16 74964
amf20.zip 06-May-2026 08:16 86782
amf25.zip 06-May-2026 08:16 77030
arcm200l.zip 06-May-2026 08:16 60021
ascb1.zip 06-May-2026 08:16 70701
ascoc600.zip 06-May-2026 08:16 74189
babangmeter.zip 06-May-2026 08:16 67910
bat61cj.zip 06-May-2026 08:16 72037
battery24_voltage.zip 06-May-2026 08:16 1846
battery2v_32.zip 06-May-2026 08:16 230132
battery_24.zip 06-May-2026 08:16 3810
battery_32.zip 06-May-2026 08:16 230289
batterycurrent4_20_n100_100.zip 06-May-2026 08:16 64967
batteryvoltage4_20.zip 06-May-2026 08:16 64585
bepmw2800.zip 06-May-2026 08:16 67624
bmu24.zip 06-May-2026 08:16 2312
bt_48dc.zip 06-May-2026 08:16 73591
bt_s80_a3_cbah01_b14.zip 06-May-2026 08:16 88314
bt_venv.zip 06-May-2026 08:16 87116
btbacnetleng.zip 06-May-2026 08:16 81784
btbacnetleng1.zip 06-May-2026 08:16 78282
btbacnetleng170.zip 06-May-2026 08:16 85330
btbacnetleng171_172.zip 06-May-2026 08:16 71627
btbacnetleng173_174_175.zip 06-May-2026 08:16 72197
btbacnetleng176_177.zip 06-May-2026 08:16 72048
btbat2000.zip 06-May-2026 08:16 92068
btbat2000_2.zip 06-May-2026 08:16 91416
btfengjidi.zip 06-May-2026 08:16 77510
bthengshiji.zip 27-Jun-2024 02:55 65765
bwdk326.zip 06-May-2026 08:16 73383
bzcdoorsensor.zip 06-May-2026 08:16 73606
c2000_a2_sdxa000_ax1.zip 06-May-2026 08:16 75206
camera.zip 06-May-2026 08:16 4151
canatal.zip 06-May-2026 08:16 82053
canatal_ms1554.zip 06-May-2026 08:16 81409
cavt.zip 06-May-2026 08:16 85534
cdq1s.zip 06-May-2026 08:16 80066
championups.zip 06-May-2026 08:16 218022
changjiyuncang.zip 06-May-2026 08:16 88566
changjiyuncang20.zip 06-May-2026 08:16 89440
climavenetaac.zip 06-May-2026 08:16 70040
cm02n600a0.zip 06-May-2026 08:16 85369
cmplus.zip 06-May-2026 08:16 79081
cms200.zip 06-May-2026 08:16 122033
cphp2200.zip 06-May-2026 08:16 1887
cpm1350.zip 06-May-2026 08:16 77076
cpm3310.zip 06-May-2026 08:16 69101
cscp.zip 06-May-2026 08:16 286744
cscp_419.zip 06-May-2026 08:16 119360
ctdg_ac.zip 06-May-2026 08:16 71386
cuc01h.zip 06-May-2026 08:16 90050
cuc01hc.zip 06-May-2026 08:16 310085
cuc01hc_419.zip 06-May-2026 08:16 115358
cuc0609h.zip 06-May-2026 08:16 297148
cuc0609h_419.zip 06-May-2026 08:16 117498
cuc2000hi.zip 06-May-2026 08:16 84644
cuc21vb.zip 06-May-2026 08:16 164830
cws19_temperature_sp2.zip 06-May-2026 08:16 50544
cybermateevo.zip 06-May-2026 08:16 69643
cypd10a.zip 06-May-2026 08:16 71601
daneng6000.zip 06-May-2026 08:16 68985
datamate3000.zip 06-May-2026 08:16 82526
db4610.zip 06-May-2026 08:16 79044
dc4xdmk3.zip 06-May-2026 08:16 84783
dc5x.zip 02-Dec-2025 10:04 86990
dcm3366.zip 06-May-2026 08:16 71732
dcm3366d_w1.zip 06-May-2026 08:16 67129
dcm3366m_12_w1.zip 06-May-2026 08:16 69112
dcm3366ph241s.zip 06-May-2026 08:16 71008
dcm3366q.zip 06-May-2026 08:16 66617
dds3366m_w1.zip 06-May-2026 08:16 67279
debil64dido.zip 06-May-2026 08:16 52439
deif_h2.zip 06-May-2026 08:16 83228
delta_240_rc.zip 06-May-2026 08:16 85025
delta_adc380_200.zip 06-May-2026 08:16 88834
delta_dps_h.zip 06-May-2026 08:16 70799
deltahav36a.zip 06-May-2026 08:16 2591
deltahift.zip 06-May-2026 08:16 72729
deltanhnt.zip 06-May-2026 08:16 111698
deltant.zip 06-May-2026 08:16 2537
dfpm93.zip 15-Mar-2025 09:38 87527
diris_a40.zip 06-May-2026 08:16 69981
djddsd.zip 06-May-2026 08:16 72674
dk04.zip 06-May-2026 08:16 6797
dk04c.zip 06-May-2026 08:16 6216
dk09.zip 06-May-2026 08:16 81419
dkd46.zip 31-Mar-2025 06:22 103355
dkd46_419.zip 06-May-2026 08:16 124469
dm2300.zip 06-May-2026 08:16 71625
doctrl.zip 06-May-2026 08:16 67811
door_ms899_v5.zip 06-May-2026 08:16 73539
doorsensor.zip 06-May-2026 08:16 68382
doorxjl.zip 06-May-2026 08:16 2217
doorxjlb.zip 15-Sep-2025 09:14 179101
dpm8600.zip 14-Oct-2024 08:26 66903
dpu_dkln.zip 06-May-2026 08:16 68866
dse5210.zip 06-May-2026 08:16 82232
dse7310.zip 06-May-2026 08:16 79842
dse7310b.zip 06-May-2026 08:16 77887
dts100.zip 06-May-2026 08:16 73735
dts541.zip 06-May-2026 08:16 73237
dts541s.zip 06-May-2026 08:16 71400
dtsd3366d.zip 06-May-2026 08:16 86313
dtsd3366m4.zip 06-May-2026 08:16 92989
dtsd3366p4.zip 02-Nov-2025 01:31 73478
dv11_r2.zip 06-May-2026 08:16 67811
ea86.zip 06-May-2026 08:16 2236
eagle600.zip 06-May-2026 08:16 69448
eajk070swzl.zip 06-May-2026 08:16 50476
eatonups9390.zip 06-May-2026 08:16 4901
ecm2000.zip 06-May-2026 08:16 79338
em300.zip 06-May-2026 08:16 67677
em400.zip 06-May-2026 08:16 72733
engine6.zip 02-Dec-2025 10:26 172178
epm600k.zip 06-May-2026 08:16 98157
et903.zip 06-May-2026 08:16 86892
et903e.zip 06-May-2026 08:16 76451
evocybermatedx.zip 06-May-2026 08:16 89917
evocybermatedxmodbus.zip 06-May-2026 08:16 81680
evou4xrowcw.zip 06-May-2026 08:16 94069
evou4xrowdx.zip 06-May-2026 08:16 102901
ex8_33.zip 06-May-2026 08:16 70591
exm2ups.zip 06-May-2026 08:16 87262
fansensor.zip 06-May-2026 08:16 50059
fc102.zip 06-May-2026 08:16 70682
fengji1.zip 06-May-2026 08:16 80630
fengji2.zip 06-May-2026 08:16 76702
fkdpc100ej.zip 06-May-2026 08:16 66300
fourseaats.zip 06-May-2026 08:16 2114
fresh_air.zip 06-May-2026 08:16 74045
ganshi_temperature.zip 06-May-2026 08:16 67996
gassensor.zip 06-May-2026 08:16 69739
geats.zip 06-May-2026 08:16 68878
general_temp_humid.zip 06-May-2026 08:16 98041
general_temp_humidb.zip 06-May-2026 08:16 97261
glassbroken.zip 06-May-2026 08:16 65233
gm6650dc.zip 06-May-2026 08:16 87084
gree.zip 06-May-2026 08:16 71336
greebmsac.zip 06-May-2026 08:16 82639
greejkf20cnnab.zip 06-May-2026 08:16 85545
greestationac.zip 06-May-2026 08:16 83157
gstinet03.zip 06-May-2026 08:16 59574
gtr85.zip 06-May-2026 08:16 79853
gu320a.zip 06-May-2026 08:16 73606
gu631a.zip 06-May-2026 08:16 80121
h2sensor.zip 06-May-2026 08:16 68091
h3gta.zip 06-May-2026 08:16 74475
h3gtabatterybalancer160.zip 06-May-2026 08:16 110248
h3gtc.zip 06-May-2026 08:16 73120
haihong.zip 06-May-2026 08:16 79130
haiwu.zip 06-May-2026 08:16 98877
haiwucsaf.zip 06-May-2026 08:16 113711
hanguang4pac.zip 06-May-2026 08:16 66017
hanguang4pdc.zip 06-May-2026 08:16 65138
hat400.zip 06-May-2026 08:16 71940
hat500.zip 06-May-2026 08:16 73131
hat600.zip 06-May-2026 08:16 73622
hbzs96k.zip 06-May-2026 08:16 68725
hc33.zip 06-May-2026 08:16 71719
hcccs03.zip 06-May-2026 08:16 72692
hds_sbms.zip 06-May-2026 08:16 81654
hgc300.zip 23-Jan-2026 07:06 88717
hgm6100.zip 06-May-2026 08:16 76159
hgm9300.zip 06-May-2026 08:16 86126
hgm9420n.zip 06-May-2026 08:16 114448
hgxy_sps.zip 06-May-2026 08:16 92658
hgxy_sps_tower.zip 06-May-2026 08:16 75115
hipulseu.zip 06-May-2026 08:16 81618
hisense.zip 06-May-2026 08:16 82855
hisense_v3.zip 06-May-2026 08:16 75638
hisenses.zip 06-May-2026 08:16 82560
hiwave_ac.zip 06-May-2026 08:16 100919
hongyindz.zip 06-May-2026 08:16 67436
hr_rtu_jg.zip 06-May-2026 08:16 84199
huaweilibattery.zip 06-May-2026 08:16 75265
huayizfsltianjinlu.zip 06-May-2026 08:16 71675
humid.zip 06-May-2026 08:16 2173
humid2.zip 06-May-2026 08:16 64380
humid303mini.zip 06-May-2026 08:16 48331
humid_sp.zip 06-May-2026 08:16 67126
humid_sp2.zip 06-May-2026 08:16 69165
hvdc.zip 06-May-2026 08:16 89662
hvdy.zip 06-May-2026 08:16 79479
hzjk01b.zip 06-May-2026 08:16 75429
icntmint.zip 06-May-2026 08:16 75159
igntc.zip 06-May-2026 08:16 121143
il4amf25.zip 06-May-2026 08:16 81590
il4mrs16.zip 06-May-2026 08:16 80695
infraredgrating.zip 06-May-2026 08:16 64111
infraredsensor.zip 06-May-2026 08:16 66406
innotemperature.zip 06-May-2026 08:16 67325
ita.zip 06-May-2026 08:16 81314
iteaq88005274.zip 06-May-2026 08:16 94522
iteaqcoolfree14.zip 06-May-2026 08:16 102349
iteaqcoolrow5000.zip 06-May-2026 08:16 74330
iteaqcoolsmart.zip 06-May-2026 08:16 86796
iteaqsbms.zip 06-May-2026 08:16 74946
iteaqups.zip 06-May-2026 08:16 105154
iteaqupsur.zip 06-May-2026 08:16 79015
jbatterybalancer.zip 06-May-2026 08:16 2452
jbatterybalancer160.zip 28-Mar-2025 09:06 68102
jbatterycontroller.zip 06-May-2026 08:16 3182
jbms.zip 06-May-2026 08:16 74706
jbms_d.zip 06-May-2026 08:16 70603
jbms_e.zip 06-May-2026 08:16 73459
jdrk_rssj_6h.zip 06-May-2026 08:16 73892
jgctemperature24.zip 06-May-2026 08:16 72729
jigui_bms.zip 06-May-2026 08:16 67162
jk070sw.zip 06-May-2026 08:16 2072
jpmc.zip 06-May-2026 08:16 91523
js_opcua_d4.zip 06-May-2026 08:16 30159
jxbs3001h2s.zip 06-May-2026 08:16 65716
jzl485.zip 06-May-2026 08:16 76175
jzlbtse.zip 06-May-2026 08:16 84547
jzlcharger.zip 06-May-2026 08:16 62662
jzlcharger2.zip 06-May-2026 08:16 61536
jzlcharger3.zip 06-May-2026 08:16 70726
jzlchargerfsbfbi.zip 06-May-2026 08:16 73461
jzldcdc.zip 06-May-2026 08:16 59045
jzlkd.zip 14-Oct-2024 08:16 66826
jzlmcc.zip 06-May-2026 08:16 70856
jzlvolcur.zip 06-May-2026 08:16 65995
k200.zip 06-May-2026 08:16 77668
kddsv22.zip 06-May-2026 08:16 178018
kelongmr33m.zip 06-May-2026 08:16 97996
kn10.zip 06-May-2026 08:16 88888
kstar_ups_megatec.zip 06-May-2026 08:16 98810
kstarmatrixair.zip 02-Dec-2024 08:44 83449
kstarups.zip 06-May-2026 08:16 129213
kstarupsbt.zip 06-May-2026 08:16 119393
libvdevice.so 30-Apr-2024 07:22 1332640
liebert_pex.zip 06-May-2026 08:16 77451
liebert_ups.zip 06-May-2026 08:16 4037
ltech_engine.zip 06-May-2026 08:16 68587
m500f.zip 06-May-2026 08:16 287069
m520s.zip 06-May-2026 08:16 299860
m522s.zip 06-May-2026 08:16 285645
m522s_419.zip 06-May-2026 08:16 121191
m810g.zip 06-May-2026 08:16 285682
m810g_419.zip 06-May-2026 08:16 124815
m816.zip 06-May-2026 08:16 74459
m822e.zip 06-May-2026 08:16 110030
ma01c.zip 06-May-2026 08:16 128965
ma01dh.zip 06-May-2026 08:16 73582
ma01dl.zip 06-May-2026 08:16 85438
mainverter.zip 06-May-2026 08:16 1582
mapowermeter.zip 06-May-2026 08:16 59869
mars16.zip 05-Jan-2026 09:39 76323
mb5000l.zip 06-May-2026 08:16 77547
mc2600.zip 06-May-2026 08:16 78562
mcgs.zip 06-May-2026 08:16 77982
mcgs_1aa1.zip 06-May-2026 08:16 74009
mcgs_1au1.zip 06-May-2026 08:16 2814
mcgs_3au1.zip 06-May-2026 08:16 67303
mcgs_3au3.zip 06-May-2026 08:16 71776
mcs1800.zip 06-May-2026 08:16 283041
mcs1800a.zip 06-May-2026 08:16 310683
mcs6000.zip 06-May-2026 08:16 7110
mcs_fc3.zip 06-May-2026 08:16 84915
mdq_stb1_125.zip 06-May-2026 08:16 69675
mdtx_sc100e.zip 06-May-2026 08:16 82313
mdtx_sc100e_4.zip 06-May-2026 08:16 80347
mec048_h42c0.zip 06-May-2026 08:16 101269
mec10.zip 06-May-2026 08:16 1536
mec2x.zip 06-May-2026 08:16 84334
media_ac.zip 06-May-2026 08:16 77135
media_dcm.zip 06-May-2026 08:16 78878
mediamav.zip 06-May-2026 08:16 95164
mediamavb.zip 06-May-2026 08:16 92059
mediasaf.zip 06-May-2026 08:16 73522
met05_ac8.zip 06-May-2026 08:16 72288
meterdm2300n.zip 06-May-2026 08:16 67983
mindsecdps4d08.zip 06-May-2026 08:16 81029
modbus_bd330.zip 06-May-2026 08:16 60487
modbus_db600.zip 06-May-2026 08:16 61354
modbus_epower.zip 06-May-2026 08:16 62077
modbus_hisense.zip 06-May-2026 08:16 67308
modbus_md500.zip 06-May-2026 08:16 62439
modbus_vertiv_ac.zip 06-May-2026 08:16 78338
motor_battery.zip 06-May-2026 08:16 65903
motor_battery12.zip 06-May-2026 08:16 63710
mrs16l4.zip 06-May-2026 08:16 79657
ms10.zip 06-May-2026 08:16 75771
ms10fg.zip 06-May-2026 08:16 90758
ms19mb.zip 06-May-2026 08:16 80174
ms20.zip 06-May-2026 08:16 146834
mt_ghj.zip 06-May-2026 08:16 68952
multiinstrument.zip 06-May-2026 08:16 68353
multism18.zip 06-May-2026 08:16 70848
nb_temperature.zip 06-May-2026 08:16 2704
ndq5.zip 06-May-2026 08:16 69189
nes96xx.zip 06-May-2026 08:16 72027
nlk8do.zip 06-May-2026 08:16 50688
np9801.zip 06-May-2026 08:16 118433
ntc_temperature.zip 06-May-2026 08:16 57450
nxr.zip 06-May-2026 08:16 79522
p127.zip 06-May-2026 08:16 69847
p4gs0207cm.zip 06-May-2026 08:16 81561
pa194i.zip 06-May-2026 08:16 68903
pa194u.zip 06-May-2026 08:16 1309
pa2000.zip 06-May-2026 08:16 71133
pcc2110.zip 06-May-2026 08:16 75594
pd1688z.zip 06-May-2026 08:16 70293
pd194e.zip 06-May-2026 08:16 70043
pd194ui.zip 06-May-2026 08:16 69021
pd195ze31.zip 06-May-2026 08:16 68763
pd510.zip 06-May-2026 08:16 70799
pd606.zip 06-May-2026 08:16 78528
pdu8000.zip 06-May-2026 08:16 96423
pex3dx.zip 06-May-2026 08:16 81055
pex4s.zip 06-May-2026 08:16 108072
pexap.zip 06-May-2026 08:16 82709
pilotspm206.zip 06-May-2026 08:16 72274
pm25.zip 06-May-2026 08:16 59107
pm25v2.zip 06-May-2026 08:16 66983
pm4s.zip 06-May-2026 08:16 81756
pm5350.zip 06-May-2026 08:16 70212
pm550.zip 06-May-2026 08:16 67656
pmac203.zip 06-May-2026 08:16 85997
pmac600_a.zip 06-May-2026 08:16 67532
pmac600_b.zip 06-May-2026 08:16 68312
pmac625.zip 06-May-2026 08:16 86493
pmac720.zip 06-May-2026 08:16 93957
pmac910.zip 06-May-2026 08:16 68376
pmacs963e.zip 06-May-2026 08:16 68508
pmc33x.zip 06-May-2026 08:16 88241
pmc630s.zip 06-May-2026 08:16 70770
pmchmi.zip 06-May-2026 08:16 84280
pmchmi_dc.zip 06-May-2026 08:16 85070
pmf632b.zip 06-May-2026 08:16 74812
pmf720y.zip 06-May-2026 08:16 77446
pmf910l.zip 06-May-2026 08:16 82493
pmhiwave.zip 05-Nov-2025 07:22 86414
pmtowerdoor.zip 06-May-2026 08:16 73376
pmu400.zip 06-May-2026 08:16 69706
pmu500.zip 06-May-2026 08:16 70214
pmw2800.zip 06-May-2026 08:16 90337
power_302a.zip 06-May-2026 08:16 77246
powercommand33.zip 06-May-2026 08:16 75284
powermeter_leak.zip 06-May-2026 08:16 56763
powerwizard.zip 06-May-2026 08:16 75503
prsh2.zip 06-May-2026 08:16 66487
psm15a.zip 06-May-2026 08:16 290905
psm15a_419.zip 06-May-2026 08:16 118886
psma.zip 06-May-2026 08:16 291573
psma9.zip 06-May-2026 08:16 291453
psma_419.zip 06-May-2026 08:16 119913
pstcn980.zip 06-May-2026 08:16 70254
qb2000n.zip 06-May-2026 08:16 65882
rpdu.zip 06-May-2026 08:16 80787
rssjdwn01r01.zip 06-May-2026 08:16 79329
rswsn01_humid_sp2.zip 06-May-2026 08:16 50511
rswsn01_temperature_sp2.zip 06-May-2026 08:16 50561
ruipu_ups.zip 06-May-2026 08:16 78561
sac3000.zip 06-May-2026 08:16 75599
sca.zip 06-May-2026 08:16 78537
schneidercompactnsx.zip 06-May-2026 08:16 69216
schneiderdm2300.zip 06-May-2026 08:16 68326
schneiderdm2365st.zip 08-Sep-2025 06:18 69273
scu.zip 06-May-2026 08:16 81447
scwchiller.zip 06-May-2026 08:16 83019
sdc.zip 06-May-2026 08:16 88321
sdhdbdm.zip 06-May-2026 08:16 71266
sdhdbmu.zip 06-May-2026 08:16 65706
sg2022.zip 06-May-2026 08:16 68346
sgc420.zip 06-May-2026 08:16 87040
sgc420mkii.zip 06-May-2026 08:16 88459
shendian.zip 06-May-2026 08:16 68889
sicam_p35.zip 06-May-2026 08:16 81975
sicamp37.zip 06-May-2026 08:16 88213
skmki.zip 06-May-2026 08:16 292278
sl1882s_mz3_5_1.zip 06-May-2026 08:16 84683
sl1882s_mz3_5_2.zip 06-May-2026 08:16 86408
sl3500th3ct.zip 06-May-2026 08:16 78383
sl3500th3ct2.zip 06-May-2026 08:16 104006
sl6100th3ct.zip 26-Dec-2025 08:20 93394
sl6200th1ct2.zip 06-May-2026 08:16 161580
sl6200th1ct2v215.zip 06-May-2026 08:16 176320
sm3600b20.zip 06-May-2026 08:16 71930
smartli3.zip 06-May-2026 08:16 89945
smoke.zip 06-May-2026 08:16 394
smoke2.zip 06-May-2026 08:16 67697
smpdu.zip 06-May-2026 08:16 70825
smu06c.zip 06-May-2026 08:16 306484
smu06c_419.zip 06-May-2026 08:16 125611
snp1313.zip 06-May-2026 08:16 69004
socketagc150.zip 06-May-2026 08:16 92053
spc.zip 06-May-2026 08:16 71135
spm33.zip 06-May-2026 08:16 75683
st6_20k.zip 06-May-2026 08:16 100797
suacfanbalancer.zip 06-May-2026 08:16 67233
subattery.zip 06-May-2026 08:16 72109
sunrise_eda.zip 06-May-2026 08:16 87449
sutemperature3.zip 06-May-2026 08:16 66485
taac.zip 06-May-2026 08:16 68419
tbea_powermeter1.zip 06-May-2026 08:16 68050
tbea_powermeter2.zip 06-May-2026 08:16 67111
tc20.zip 06-May-2026 08:16 87015
tclstationac.zip 06-May-2026 08:16 82257
tcmeter.zip 06-May-2026 08:16 1701
temperature.zip 06-May-2026 08:16 2760
temperature2.zip 06-May-2026 08:16 65065
temperature3.zip 06-May-2026 08:16 65144
temperature303mini.zip 06-May-2026 08:16 51053
temperature_sp.zip 06-May-2026 08:16 67688
temperature_sp2.zip 06-May-2026 08:16 69992
temtransmitter.zip 06-May-2026 08:16 67586
threephasemeter.zip 06-May-2026 08:16 65520
thse10.zip 06-May-2026 08:16 67395
tlsd.zip 06-May-2026 08:16 285168
tm5530.zip 06-May-2026 08:16 73532
tmcontroller.zip 06-May-2026 08:16 152447
tmcontroller20250701.zip 06-May-2026 08:16 93931
tmqth2.zip 06-May-2026 08:16 69874
tpc_7062.zip 06-May-2026 08:16 70156
ug20.zip 06-May-2026 08:16 3646
ug30.zip 06-May-2026 08:16 4018
ug40.zip 06-May-2026 08:16 83443
uh11.zip 06-May-2026 08:16 76577
ul33.zip 06-May-2026 08:16 90580
unicom_ac.zip 06-May-2026 08:16 68963
unicom_ac2.zip 06-May-2026 08:16 73342
unicom_acrpz96.zip 06-May-2026 08:16 61009
unicom_coolfree.zip 06-May-2026 08:16 82284
unicom_coolmaster3k.zip 06-May-2026 08:16 78516
unicom_dps6000.zip 06-May-2026 08:16 123057
unicom_engine.zip 06-May-2026 08:16 81497
unicom_h3gbatterybalancer160.zip 06-May-2026 08:16 74594
unicom_hmi2796s.zip 06-May-2026 08:16 68582
unicom_iplu_2801bm.zip 06-May-2026 08:16 74299
unicom_irmsensor.zip 06-May-2026 08:16 69264
unicom_ll11.zip 06-May-2026 08:16 93309
unicom_ll13.zip 06-May-2026 08:16 92650
unicom_nhbaccontroller.zip 06-May-2026 08:16 79464
unicom_p14.zip 06-May-2026 08:16 69622
unicom_pdu8000.zip 06-May-2026 08:16 72844
unicom_powermetertype1.zip 06-May-2026 08:16 70490
unicom_rc.zip 06-May-2026 08:16 70213
unicom_spm33.zip 06-May-2026 08:16 70715
unicom_ups.zip 06-May-2026 08:16 85962
unicom_ups5000.zip 06-May-2026 08:16 101738
unicom_yd2018.zip 06-May-2026 08:16 77441
unicom_yd6600.zip 06-May-2026 08:16 79192
unicom_yd8771y.zip 06-May-2026 08:16 69018
unicom_yd8771y1.zip 06-May-2026 08:16 67728
unicom_yd8771yb.zip 06-May-2026 08:16 68033
unicom_ydet903e.zip 06-May-2026 08:16 58886
unicom_yn194e2s4.zip 06-May-2026 08:16 60836
unicompowermeter.zip 06-May-2026 08:16 68117
unicomxjslplc.zip 06-May-2026 08:16 148128
unicomzyt39124.zip 06-May-2026 08:16 72845
unicomzytmeter.zip 06-May-2026 08:16 73756
ups2000.zip 06-May-2026 08:16 93775
ups5000.zip 06-May-2026 08:16 126218
ups_3u_hq_m.zip 06-May-2026 08:16 85386
ups_eu_hq_m.zip 06-May-2026 08:16 79793
upsbattery650_voltage.zip 06-May-2026 08:16 65333
upsbattery750_voltage.zip 06-May-2026 08:16 65294
upsbattery_20.zip 06-May-2026 08:16 232278
upsbattery_29.zip 06-May-2026 08:16 232167
upsbattery_30.zip 06-May-2026 08:16 232246
upskstar.zip 06-May-2026 08:16 68940
vca.zip 06-May-2026 08:16 68499
vtumodel.zip 06-May-2026 08:16 1820
vtumodelyunbase.zip 06-May-2026 08:16 89214
water.zip 06-May-2026 08:16 394
water2.zip 06-May-2026 08:16 68766
wkcontroller.zip 06-May-2026 08:16 82137
wotpclevel3.zip 06-May-2026 08:16 71441
wrwf_kr1110.zip 06-May-2026 08:16 102995
xdfreshair.zip 06-May-2026 08:16 71596
xdfreshair2.zip 06-May-2026 08:16 67676
xdfreshaircool.zip 06-May-2026 08:16 84856
xfc500.zip 06-May-2026 08:16 70823
xhb_pqa_x2.zip 06-May-2026 08:16 64577
xhbpqax.zip 06-May-2026 08:16 70565
xiangjiangxiaomuxian.zip 06-May-2026 08:16 116441
xinruidabat23.zip 06-May-2026 08:16 66581
xjbabushui.zip 06-May-2026 08:16 70313
xjbadianbiaotongxun.zip 06-May-2026 08:16 68665
xjbaerdanyuan.zip 06-May-2026 08:16 82663
xjbahuanguan.zip 06-May-2026 08:16 74093
xjbahuanjing.zip 06-May-2026 08:16 67108
xjbalengjitongxun.zip 06-May-2026 08:16 69934
xjbalengquetatongxue.zip 06-May-2026 08:16 67053
xjbalengquetatongxun.zip 06-May-2026 08:16 69540
xjbaliudanyuan.zip 06-May-2026 08:16 72848
xjbalouceng.zip 06-May-2026 08:16 98464
xjbamoduanzongguan.zip 06-May-2026 08:16 73494
xjbasandanyuan.zip 06-May-2026 08:16 75425
xjbashuichulishebeitongxun.zip 06-May-2026 08:16 73251
xjbasidanyuan.zip 06-May-2026 08:16 72745
xjbawudanyuan.zip 06-May-2026 08:16 80114
xjbaxulengguan.zip 06-May-2026 08:16 72343
xjbaxulengguantongxun.zip 06-May-2026 08:16 66366
xjbayidanyuan.zip 06-May-2026 08:16 82843
xjchangjiliejian.zip 06-May-2026 08:16 80544
xjdh_kl.zip 06-May-2026 08:16 93825
xjdh_m.zip 06-May-2026 08:16 85744
xjdxba500.zip 06-May-2026 08:16 62178
xjdxba510.zip 06-May-2026 08:16 70624
xjdxba511.zip 06-May-2026 08:16 72369
xjdxba512.zip 06-May-2026 08:16 72323
xjdxba513.zip 06-May-2026 08:16 72008
xjdxba514.zip 06-May-2026 08:16 72498
xjdxba515.zip 06-May-2026 08:16 72871
xjdxba516.zip 06-May-2026 08:16 74050
xjdxba517.zip 06-May-2026 08:16 72392
xjdxba518.zip 06-May-2026 08:16 71634
xjdxba519.zip 06-May-2026 08:16 79296
xjdxba525.zip 06-May-2026 08:16 72080
xjdxba526.zip 06-May-2026 08:16 72122
xjdxba527.zip 06-May-2026 08:16 72139
xjdxba528.zip 06-May-2026 08:16 72117
xjdxba529.zip 06-May-2026 08:16 72656
xjdxba530.zip 06-May-2026 08:16 72351
xjdxba531.zip 06-May-2026 08:16 70375
xjdxba532.zip 06-May-2026 08:16 70770
xjdxba533.zip 06-May-2026 08:16 71490
xjdxba534.zip 06-May-2026 08:16 71333
xjdxba535.zip 06-May-2026 08:16 76994
xjdxba536.zip 06-May-2026 08:16 78934
xjdxba537.zip 06-May-2026 08:16 72358
xjdxba538.zip 06-May-2026 08:16 72829
xjunicompowermeter.zip 06-May-2026 08:16 67901
xwpc3.zip 06-May-2026 08:16 67261
yananac.zip 06-May-2026 08:16 67106
yananbattery.zip 06-May-2026 08:16 81725
yd2037yr.zip 06-May-2026 08:16 60424
yd2037ys.zip 06-May-2026 08:16 75435
yd2200.zip 06-May-2026 08:16 91803
yd_dems_bd2_rht.zip 06-May-2026 08:16 96154
yd_dems_vd2.zip 06-May-2026 08:16 74036
yf8015.zip 06-May-2026 08:16 200313
yinjia.zip 06-May-2026 08:16 71378
yz900.zip 06-May-2026 08:16 72353
zhm15m.zip 06-May-2026 08:16 70537
zhm19m.zip 06-May-2026 08:16 89735
zhongtian_419.zip 06-May-2026 08:16 115418
zmdoc.zip 06-May-2026 08:16 69015
znv_access4000.zip 06-May-2026 08:16 57929
znv_datamate3000.zip 06-May-2026 08:16 70085
znv_humid.zip 06-May-2026 08:16 64103
znv_rua050cxt1l3.zip 06-May-2026 08:16 57809
znv_temperature.zip 06-May-2026 08:16 64357
znvbm41.zip 06-May-2026 08:16 77978
znvbm41_48.zip 06-May-2026 08:16 76229
znvbm41_ups.zip 06-May-2026 08:16 74279
znvdtms10.zip 06-May-2026 08:16 72798
znvh3ga0.zip 06-May-2026 08:16 76238
znvh3ga0_48.zip 06-May-2026 08:16 74739
zt310d_419.zip 06-May-2026 08:16 112308
zxdcmeter.zip 18-Dec-2024 06:38 72700
zxdu300_500.zip 06-May-2026 08:16 284978
zxdu300_500_419.zip 06-May-2026 08:16 120545
zxdu68_419.zip 06-May-2026 08:16 118775
zxdu68_t601v41_419.zip 06-May-2026 08:16 119721
zxdu68_t601v50_419.zip 06-May-2026 08:16 116498
zxm10_dth.zip 06-May-2026 08:16 74297
zxm10_dth_b.zip 06-May-2026 08:16 74034
zxmeter18.zip 06-May-2026 08:16 66512
zxpowermeter4.zip 06-May-2026 08:16 67098
zxpowermeter6.zip 06-May-2026 08:16 67144